CZ-2D R/B, 43486

Orbit data source: Space-Track

CZ-2D R/B, 43486 is space debris in SSO originally from a launch on Sat, 02 Jun 2018 UTC launched from the Jiuquan Satellite Launch Center, China (JSC). Debris objects in space refer to the collection of defunct objects orbiting the Earth. Examples of debris include non-operational satellites, rocket bodies, and fragments generated from explosions, collisions, or faulty payload assembly.

Loading next visibility...
Identifier
43486, 2018-048C
Orbit
SSO
Country
Flag of CNCN / PRC
Related business
Manufacturer
CALT
Mission
Spacecraft
Bus & Motor
Unknown
Mass
1 kg wet, 1 kg dry
Launch date (UTC)
2018-06-02 (7 years ago)
Launch vehicle
Unknown
Launch site
Jiuquan Satellite Launch Center, China (JSC)
Object type
Payload
Rocket body
Debris
Shape & HBR
Cone, 0.1 m
Radar Cross Section
0.025 m², Small (<0.1 m²)

Expand to show TLE details & history
Last TLE update: 8 hours ago

TLE from 8 hours ago
0 CZ-2D R/B
1 43486U 18048C   25258.58438954  .00004917  00000-0  48319-3 0  9993
2 43486  97.6102 292.3966 0011573   7.5187 352.6204 14.92535725394151
Epoch: 2025-09-15T14:01Z
TLE epoch observation values (Epoch: 2025-09-15T14:01:31.256Z)
Latitude
-0.00001°
Longitude
87.22942°
Altitude
585.08 km
Speed
7.572 km/s
True Right ascension
19h 29m 35s
True Declination
0° 00' 00"
Sunlit
Object was in full shadow at epoch
Visualization orbit readout
Latitude
Unknown
Longitude
Unknown
Altitude
Unknown
Speed
Unknown
Apparent Right ascension
Unknown
Apparent Declination
Unknown
Sunlit
N/A
Visualization observer readout
Local Sidereal Time
15:08:29
Azimuth
Unknown
Elevation
Unknown
Doppler factor
Unknown
Orbital elements
Apogee altitude
595.104 km
Perigee altitude
578.983 km
Semi-major axis
6,965.18 km
Eccentricity
0.00116
Inclination
97.6102°
RAAN
292.3966°
Arg. of periapsis
7.5187°
True anomaly
352.60334°
Mean anomaly
352.6204°
Eccentric anomaly
352.61187°
Mean motion
3.73374 °/min
Orbital period
96.42 mins
BSTAR
0.00048319
Loading maneuver chart data...
Computing Atmospheric mass density...
Loading historical data...
Loading historical data...
Loading historical data...
Loading historical data...
Loading historical data...
Loading historical data...
Loading historical data...
Other satellites on launch #48 in the year 2018 (2018-06-02 UTC)

Documentation

Showing up to 5 results
|